Tracking 34717 objects as of 14-Jul-2026
HD Live streaming from Space Station
objects crossing your sky now

GJZ 04

Track GJZ 04 now!
10-day predictions


NORAD ID: 62293
Int'l Code: 2024-238D
Perigee: 975.7 km
Apogee: 1,000.4 km
Inclination: 59.9 °
Period: 104.7 minutes
Semi major axis: 7359 km
RCS: Unknown
Launch date: December 12, 2024
Source: People's Republic of China (PRC)
Launch site: Jiuquan Satellite Launch Center, China (JSC)
Your satellite tracking list
Your tracking list is empty




NASA's NSSDC Master Catalog

Two Line Element Set (TLE):
1 62293U 24238D   26195.17669405 -.00000127  00000-0 -79836-5 0  9992
2 62293  59.9116 189.3621 0016778  30.7734 329.4254 13.75201972 79628
Source of the keplerian elements: AFSPC